Flag for Central African Republic Weather past 2 weeks in Bambari, Central African Republic

Now
86 °F

Partly sunny.


Feels Like: 95 °F
Forecast: 72 / 90 °F
Wind: 9 mph from North

Location: Bangui Airport

Current Time: May 25, 2015 at 11:17:35 AM

Latest Report: May 25, 2015 at 10:00 AM


Visibility: N/A

Pressure: 29.95 "Hg

Humidity: 70%

Dew point: 75 °F

Location of BambariLocation

Historic Weather in Bambari — Graph

°F

Bambari temperature yesterday

Maximum temperature yesterday: 90 °F (at 1:00 PM)
Minimum temperature yesterday: 77 °F (at 11:00 PM)
Average temperature yesterday: 82 °F

Past Weeks' High & Low Weather Summary

 TemperatureHumidityPressure
High95 °F (May 11, 3:00 PM)100% (May 11, 3:00 AM)30.01 "Hg (May 11, 3:00 AM)
Low72 °F (May 15, 11:00 PM)47% (May 11, 3:00 PM)29.77 "Hg (May 11, 3:00 PM)
Average82 °F81%29.89 "Hg
* Reported May 10 11:00 AM — May 25 10:00 AM, Bambari, Weather by CustomWeather, © 2015

Note: Actual official high and low records may vary slightly from our data, if they occured in-between our weather recording intervals... More about our weather records

Advertising

Bambari weather history for previous 24 hours

 ConditionsComfort  
Time TempWeatherWind HumidityBarometerVisibility
10:00 AM
Mon, May 25
86 °FPartly sunny.9 mph70%29.95 "HgN/A
9:00 AM84 °FPassing clouds.10 mph74%29.95 "HgN/A
8:00 AM81 °FPassing clouds.8 mph84%29.95 "HgN/A
7:00 AM79 °FPartly sunny.2 mph89%29.92 "HgN/A
6:00 AM75 °FPartly sunny.2 mph100%29.92 "HgN/A
5:00 AM75 °FClear.2 mph94%29.89 "Hg10 mi
4:00 AM75 °FClear.2 mph94%29.89 "Hg10 mi
1:00 AM75 °FClear.2 mph94%29.89 "Hg10 mi
12:00 AM77 °FClear.No wind94%29.89 "Hg10 mi
11:00 PM
Sun, May 24
77 °FClear.No wind94%29.92 "Hg10 mi
10:00 PM79 °FClear.No wind89%29.92 "Hg5 mi
9:00 PM79 °FClear.No wind89%29.89 "Hg4 mi
8:00 PM81 °FClear.1 mph84%29.86 "Hg5 mi
7:00 PM81 °FClear.No wind79%29.83 "Hg5 mi
6:00 PM86 °FClear.2 mph70%29.83 "Hg5 mi
5:00 PM88 °FScattered clouds.5 mph59%29.80 "HgN/A
1:00 PM90 °FScattered clouds.3 mph55%29.86 "HgN/A
Weather by CustomWeather, © 2015

See weather overviewHow to use our weather pages